Simultaneous Nadir Overpasses (SNOs) Predictions

Prediction of SNOs between LANDSAT-8 and NOAA-19 Satellite Orbit:

Table of predicted SNOs for the next 14.0 days since TLE Epoch: 8/24/2024
Index Date (LANDSAT-8) Time (LANDSAT-8) Lat,Lon (LANDSAT-8) SZA (LANDSAT-8 ) Date (NOAA-19) Time (NOAA-19) Lat,Lon (NOAA-19) SZA (NOAA-19 ) Distance(km) Time Diff (sec)
1 08/25/2024 21:19:42 -80.52, 72.54 108.38 08/25/2024 21:18:52 -80.52, 72.57 108.40 0.55 50
2 08/25/2024 22:09:07 80.56,-119.46 71.70 08/25/2024 22:09:49 80.56,-119.52 71.71 1.12 42
3 08/28/2024 03:42:58 -80.30, -25.52 107.97 08/28/2024 03:41:44 -80.37, -25.77 107.96 9.10 74
4 08/28/2024 04:32:16 80.55, 144.64 72.48 08/28/2024 04:32:33 80.55, 144.60 72.49 0.74 17
5 08/30/2024 10:55:25 80.54, 48.84 73.30 08/30/2024 10:55:17 80.55, 48.97 73.31 2.24 8
6 09/01/2024 17:18:34 80.52, -47.17 74.10 09/01/2024 17:18:02 80.52, -47.11 74.09 1.17 32
7 09/01/2024 18:08:00 -80.56, 120.82 105.83 09/01/2024 18:09:01 -80.55, 120.71 105.82 2.08 61
8 09/03/2024 23:41:43 80.48,-143.40 74.87 09/03/2024 23:40:47 80.49,-143.27 74.87 2.69 56
9 09/04/2024 00:31:08 -80.55, 24.93 105.01 09/04/2024 00:31:45 -80.55, 25.10 104.97 3.07 37



Historial Predications of SNOs between LANDSAT-8 and NOAA-19
